Portada
METAR-TAF:

METAR-TAF

Aeroports :

Leconfield, Anglaterra

latitud: 53-52-37N, longitud: 0-26-15W, altitud: 7 m

Observació

L'informe es va fer fa 43 minuts, a les 15:50 UTC
Vent 4 kt del Sud
Temperatura 9°C
Humitat 81%
Pressió 1006 hPa
Visibilitat 10 km o més

METAR: EGXV 071550Z AUTO 18004KT 9999 FEW190/// 09/06 Q1006

Hora: 16:33 (16:33 UTC)


TAF: manca

Observacions i pronòstics meteorològics de més de 4000 aeroports (METAR i TAF).

Les estacions disponibles són els punts grocs i vermells al mapa.

Posi el ratolí al punt desitjat per veure el nom de l'estació.

Feu clic per veure les observacions i els pronòstics meteorològics.

Per canviar el mapa: feu clic els botons verds amb una creu de color negre per apropar; al botó verd amb un guió per allunyar la imatge; o en les fletxes verdes per a mapes adjacents.


METAR-TAF: